[Iaude] MPEC G61: 2024 FG5 [a=2.34,e=0.58,i=1.8,H=24.9]

mpec at cfa.harvard.edu mpec at cfa.harvard.edu
Fri Apr 5 08:59:51 EDT 2024


M.P.E.C. 2024-G61                                 Issued 2024 April 5, 12:58 UT

     The Minor Planet Electronic Circulars contain information on unusual
         minor planets, routine data on comets and natural satellites,
         and occasional editorial announcements.  They are published
    on behalf of Division F of the International Astronomical Union by the
          Minor Planet Center, Smithsonian Astrophysical Observatory,
                          Cambridge, MA 02138, U.S.A.
			  
             Prepared using the Tamkin Foundation Computer Network

                              MPC at CFA.HARVARD.EDU
            URL https://www.minorplanetcenter.net/    ISSN 1523-6714

                                    2024 FG5                                    


Observations:
     K24F05G* C2024 03 31.29777411 15 29.921+18 46 52.58         22.39wXEG061F52
     K24F05G  C2024 03 31.31078811 15 29.697+18 47 21.91         21.94wXEG061F52
     K24F05G  C2024 03 31.32381611 15 29.440+18 47 50.97         22.07wXEG061F52
     K24F05G  C2024 04 01.34173311 15 35.452+19 26 05.87         21.66GVEG061F51
     K24F05G  C2024 04 01.34254511 15 35.435+19 26 07.47         21.55GVEG061F51
     K24F05G  C2024 04 01.34336111 15 35.418+19 26 09.59         22.05GVEG061F51
     K24F05G  C2024 04 01.34418211 15 35.411+19 26 11.43         22.02GVEG061F51
     K24F05G 1C2024 04 03.90597 11 16 10.13 +21 13 07.0          21.3 VXEG061033
     K24F05G 1C2024 04 03.90950 11 16 10.21 +21 13 16.6          21.5 VXEG061033
     K24F05G 1C2024 04 03.91302 11 16 10.17 +21 13 26.1          21.5 VXEG061033
     K24F05G 1C2024 04 04.97838 11 16 33.63 +22 03 46.5          22.1 VXEG061033
     K24F05G 1C2024 04 04.98191 11 16 33.68 +22 03 56.4          21.9 VXEG061033
     K24F05G 1C2024 04 04.98544 11 16 33.77 +22 04 06.2          21.6 VXEG061033
     K24F05G KC2024 04 05.23967 11 16 42.62 +22 17 09.0          22.2 RVEG061691
     K24F05G KC2024 04 05.25197 11 16 42.60 +22 17 45.3          21.7 RVEG061691

Observer details:
033 Karl Schwarzschild Observatory, Tautenburg.  Observers S. Melnikov, C.
    Hogner, F. Ludwig, M. Hartmann, B. Stecklum.  Measurer B. Stecklum.
    1.34-m f/3 Schmidt + CCD.
691 Steward Observatory, Kitt Peak-Spacewatch.  Observer T. H. Bressi.  0.9-m
    f/3 reflector + CCD.
F51 Pan-STARRS 1, Haleakala.  Observers J. Herman, T. Lowe, P. Minguez, A.
    Schultz, I. Smith.  Measurers K. Chambers, T. de Boer, J. Fairlamb, H.
    Gao, M. Huber, C.-C. Lin, E. Magnier, Y. Ramanjooloo, R. Wainscoat, R.
    Weryk.  1.8-m Ritchey-Chretien + CCD.
F52 Pan-STARRS 2, Haleakala.  Observers J. Herman, T. Lowe, P. Minguez, A.
    Schultz, I. Smith.  Measurers K. Chambers, T. de Boer, J. Fairlamb, H.
    Gao, M. Huber, C.-C. Lin, E. Magnier, Y. Ramanjooloo, R. Wainscoat, R.
    Weryk.  1.8-m Ritchey-Chretien + CCD.

Orbital elements:
2024 FG5                                                 Earth MOID = 0.0226 AU
Epoch 2024 Mar. 31.0 TT = JDT 2460400.5                 Veres                   
M 348.34580              (2000.0)            P               Q                  
n   0.27524953     Peri.  109.99231     -0.55401357     +0.83211223             
a   2.3405522      Node   126.33846     -0.77522241     -0.50441276             
e   0.5811373      Incl.    1.82512     -0.30347847     -0.23055802             
P   3.58           H   24.92          G   0.15           U   9                  
Residuals in seconds of arc
240331 F52  0.2-  0.1-    240401 F51  0.0   0.0     240404 033  0.8-  0.4+
240331 F52  0.1+  0.1+    240401 F51  0.1+  0.1-    240404 033  0.5-  0.1+
240331 F52  0.0   0.1+    240403 033  1.0-  0.3+    240404 033  0.4+  0.3-
240401 F51  0.0   0.1+    240403 033  0.1+  0.3+    240405 691  0.8+  0.0
240401 F51  0.0   0.2-    240403 033  0.4-  0.2+    240405 691  0.7+  0.6-

Ephemeris:
2024 FG5                 a,e,i = 2.34, 0.58, 2                   q = 0.9804
Date    TT    R. A. (2000) Decl.     Delta      r    Elong.  Phase     V
2024 03 06    11 20 35.5 +09 37 00   0.3058  1.2969   174.8     4.0    23.3
...
2024 03 21    11 16 45.7 +13 53 47   0.2004  1.1883   162.0    15.0    22.6
...
2024 03 29    11 15 26.0 +17 28 21   0.1531  1.1359   152.0    24.3    22.3
...
2024 04 04    11 16 12.2 +21 17 58   0.1205  1.1000   144.1    32.2    21.9
2024 04 05    11 16 35.9 +22 05 26   0.1152  1.0943   142.7    33.6    21.8
2024 04 06    11 17 06.0 +22 56 27   0.1100  1.0888   141.3    35.1    21.8
...
2024 04 12    11 23 37.6 +29 51 11   0.08013 1.0578   132.1    44.7    21.3
...
2024 04 20    12 04 11.5 +50 40 08   0.04517 1.0235   113.6    64.1    20.5
...
2024 05 05    22 15 25.6 +24 54 45   0.05628 0.9852    64.0   113.1    23.0

M. P. C. Staff               (C) Copyright 2024 MPC           M.P.E.C. 2024-G61





More information about the Iaude mailing list